Location: Poughquag
(41.6090°N, 73.6820°W)
Time: 02:42:01
(UTC-04:00)

deb Explorer IX - Visible Passes

Search period start: 15 October 2019 00:00
Search period end: 25 October 2019 00:00
Orbit: 544 x 1107 km, 38.8° (Epoch: 14 October)

Date Brightness Start Highest point End Pass type
(mag) Time Alt. Az. Time Alt. Az. Time Alt. Az.
15 Oct ? 19:35:54 10° W 19:42:48 59° SSW 19:47:31 23° SE visible
15 Oct ? 21:23:38 10° W 21:28:54 28° SW 21:28:54 28° SW visible
16 Oct ? 19:13:59 10° W 19:20:45 58° SSW 19:26:54 15° ESE visible
16 Oct ? 21:01:41 10° W 21:07:40 29° SSW 21:08:18 28° SSW visible
17 Oct ? 18:52:05 10° W 18:58:43 57° SSW 19:05:53 10° ESE visible
17 Oct ? 20:39:44 10° W 20:45:38 28° SSW 20:47:47 24° S visible
18 Oct ? 18:30:12 10° W 18:36:42 56° SSW 18:43:48 10° ESE visible
18 Oct ? 20:17:49 10° W 20:23:36 27° SSW 20:27:23 18° S visible
19 Oct ? 19:55:55 10° W 20:01:34 27° SSW 20:07:09 11° SSE visible
20 Oct ? 19:34:03 10° W 19:39:32 26° SSW 19:45:19 10° SSE visible
21 Oct ? 19:12:13 10° W 19:17:31 25° SSW 19:23:11 10° SSE visible
22 Oct ? 18:50:24 10° W 18:55:31 24° SSW 19:01:01 10° SSE visible
23 Oct ? 18:28:36 10° W 18:33:31 23° SSW 18:38:50 10° SSE visible
